| time (UTC) | temp C | wind direction | speed KPH | gust KPH | rain 1hr cm | rain 24hr cm | rain mn cm | humidity % | barometer mb |
| 20260831110334 | 23 | 14 | 0.0 | 0.0 | 0.00 | 0.00 | 0.00 | 92 | 1015.6 |
| 20260831105340 | 23 | 14 | 0.0 | 0.0 | 0.00 | 0.00 | 0.00 | 92 | 1015.5 |
| 20260831104345 | 23 | 14 | 0.0 | 0.0 | 0.00 | 0.00 | 0.00 | 91 | 1015.5 |
| 20260831103349 | 23 | 14 | 0.0 | 0.0 | 0.00 | 0.00 | 0.00 | 91 | 1015.6 |
| 20260831102331 | 23 | 14 | 0.0 | 0.0 | 0.00 | 0.00 | 0.00 | 92 | 1015.5 |
| 20260831101337 | 23 | 14 | 0.0 | 0.0 | 0.00 | 0.00 | 0.00 | 91 | 1015.5 |
| 20260831100340 | 23 | 14 | 0.0 | 0.0 | 0.00 | 0.00 | 0.00 | 91 | 1015.5 |
| 20260831095325 | 23 | 14 | 0.0 | 0.0 | 0.00 | 0.00 | 0.00 | 90 | 1015.6 |
| 20260831094336 | 23 | 14 | 0.0 | 1.6 | 0.00 | 0.00 | 0.00 | 90 | 1015.6 |
| 20260831093340 | 24 | 14 | 1.6 | 4.8 | 0.00 | 0.00 | 0.00 | 90 | 1015.5 |
| 20260831092325 | 24 | 226 | 0.0 | 1.6 | 0.00 | 0.00 | 0.00 | 90 | 1015.3 |
| 20260831091352 | 24 | 226 | 0.0 | 1.6 | 0.00 | 0.00 | 0.00 | 91 | 1015.3 |
| 20260831090335 | 24 | 228 | 0.0 | 1.6 | 0.00 | 0.00 | 0.00 | 91 | 1015.3 |
| 20260831085340 | 24 | 196 | 0.0 | 1.6 | 0.00 | 0.00 | 0.00 | 90 | 1015.4 |
| 20260831084327 | 24 | 196 | 0.0 | 0.0 | 0.00 | 0.00 | 0.00 | 90 | 1015.4 |
| 20260831083335 | 24 | 196 | 0.0 | 0.0 | 0.00 | 0.00 | 0.00 | 90 | 1015.5 |
| 20260831082341 | 24 | 196 | 0.0 | 1.6 | 0.00 | 0.00 | 0.00 | 89 | 1015.5 |
| 20260831081327 | 24 | 159 | 0.0 | 1.6 | 0.00 | 0.00 | 0.00 | 89 | 1015.5 |
| 20260831080330 | 24 | 159 | 0.0 | 0.0 | 0.00 | 0.00 | 0.00 | 89 | 1015.5 |
| 20260831075335 | 25 | 159 | 0.0 | 0.0 | 0.00 | 0.00 | 0.00 | 89 | 1015.5 |
| 20260831074341 | 25 | 159 | 0.0 | 0.0 | 0.00 | 0.00 | 0.00 | 88 | 1015.5 |
| 20260831073345 | 25 | 159 | 0.0 | 0.0 | 0.00 | 0.00 | 0.00 | 88 | 1015.5 |
| 20260831072332 | 25 | 159 | 0.0 | 0.0 | 0.00 | 0.00 | 0.00 | 88 | 1015.7 |
| 20260831071336 | 25 | 159 | 0.0 | 0.0 | 0.00 | 0.00 | 0.00 | 89 | 1015.7 |
| 20260831070340 | 24 | 159 | 0.0 | 0.0 | 0.00 | 0.00 | 0.00 | 88 | 1015.8 |
| 20260831065325 | 25 | 159 | 0.0 | 1.6 | 0.00 | 0.00 | 0.00 | 88 | 1016.0 |
| 20260831064349 | 25 | 159 | 0.0 | 1.6 | 0.00 | 0.00 | 0.00 | 86 | 1016.0 |
| 20260831063331 | 25 | 159 | 0.0 | 0.0 | 0.00 | 0.00 | 0.00 | 86 | 1016.0 |
| 20260831062337 | 25 | 160 | 0.0 | 1.6 | 0.00 | 0.00 | 0.00 | 87 | 1015.9 |
| 20260831061324 | 25 | 159 | 0.0 | 1.6 | 0.00 | 0.00 | 0.00 | 86 | 1015.9 |
| 20260831060346 | 25 | 159 | 0.0 | 1.6 | 0.00 | 0.00 | 0.00 | 85 | 1016.0 |
| 20260831055330 | 25 | 160 | 0.0 | 1.6 | 0.00 | 0.00 | 0.00 | 85 | 1016.0 |
| 20260831054335 | 25 | 135 | 0.0 | 1.6 | 0.00 | 0.00 | 0.00 | 85 | 1015.9 |
| 20260831053338 | 26 | 135 | 1.6 | 3.2 | 0.00 | 0.00 | 0.00 | 84 | 1015.9 |
| 20260831051326 | 26 | 158 | 0.0 | 0.0 | 0.00 | 0.00 | 0.00 | 82 | 1015.8 |
| 20260831050329 | 26 | 158 | 0.0 | 0.0 | 0.00 | 0.00 | 0.00 | 82 | 1015.7 |
| 20260831045334 | 26 | 145 | 0.0 | 1.6 | 0.00 | 0.00 | 0.00 | 82 | 1015.8 |
| 20260831044325 | 26 | 145 | 0.0 | 3.2 | 0.00 | 0.00 | 0.00 | 81 | 1015.7 |
| 20260831043328 | 26 | 135 | 3.2 | 4.8 | 0.00 | 0.00 | 0.00 | 81 | 1015.7 |
| 20260831042353 | 27 | 137 | 1.6 | 4.8 | 0.00 | 0.00 | 0.00 | 80 | 1015.6 |
| 20260831041357 | 27 | 116 | 1.6 | 3.2 | 0.00 | 0.00 | 0.00 | 79 | 1015.5 |
| 20260831040340 | 27 | 150 | 1.6 | 3.2 | 0.00 | 0.00 | 0.00 | 78 | 1015.3 |
| 20260831035326 | 27 | 136 | 1.6 | 3.2 | 0.00 | 0.00 | 0.00 | 78 | 1015.2 |
| 20260831034351 | 27 | 148 | 1.6 | 6.4 | 0.00 | 0.00 | 0.00 | 77 | 1015.2 |
| 20260831033333 | 27 | 151 | 1.6 | 4.8 | 0.00 | 0.00 | 0.00 | 76 | 1015.1 |
| 20260831032338 | 27 | 139 | 1.6 | 3.2 | 0.00 | 0.00 | 0.00 | 76 | 1015.1 |
| 20260831031326 | 28 | 145 | 3.2 | 4.8 | 0.00 | 0.00 | 0.00 | 75 | 1015.0 |
| 20260831030330 | 28 | 149 | 1.6 | 4.8 | 0.00 | 0.00 | 0.00 | 74 | 1015.0 |
| 20260831025336 | 28 | 137 | 3.2 | 8.0 | 0.00 | 0.00 | 0.00 | 73 | 1014.9 |
| 20260831024339 | 28 | 153 | 3.2 | 4.8 | 0.00 | 0.00 | 0.00 | 73 | 1014.7 |
| 20260831023325 | 28 | 137 | 3.2 | 8.0 | 0.00 | 0.00 | 0.00 | 73 | 1014.4 |
| 20260831022351 | 28 | 145 | 3.2 | 6.4 | 0.00 | 0.00 | 0.00 | 72 | 1014.2 |
| 20260831021335 | 29 | 134 | 4.8 | 6.4 | 0.00 | 0.00 | 0.00 | 71 | 1014.1 |
| 20260831020329 | 29 | 145 | 3.2 | 6.4 | 0.00 | 0.00 | 0.00 | 70 | 1014.0 |
| 20260831015354 | 30 | 139 | 3.2 | 6.4 | 0.00 | 0.00 | 0.00 | 70 | 1014.0 |
| 20260831014342 | 30 | 141 | 3.2 | 4.8 | 0.00 | 0.00 | 0.00 | 70 | 1013.8 |
| 20260831013327 | 30 | 149 | 3.2 | 6.4 | 0.00 | 0.00 | 0.00 | 68 | 1013.7 |
| 20260831012334 | 30 | 145 | 1.6 | 4.8 | 0.00 | 0.00 | 0.00 | 68 | 1013.6 |
| 20260831011339 | 31 | 140 | 3.2 | 4.8 | 0.00 | 0.00 | 0.00 | 66 | 1013.7 |
| 20260831010343 | 31 | 142 | 3.2 | 8.0 | 0.00 | 0.00 | 0.00 | 65 | 1013.7 |
| 20260831005348 | 31 | 152 | 3.2 | 4.8 | 0.00 | 0.00 | 0.00 | 65 | 1013.5 |
| 20260831004332 | 31 | 143 | 1.6 | 4.8 | 0.00 | 0.00 | 0.00 | 63 | 1013.4 |
| 20260831003335 | 31 | 142 | 1.6 | 6.4 | 0.00 | 0.00 | 0.00 | 62 | 1013.4 |
| 20260831002324 | 32 | 168 | 3.2 | 6.4 | 0.00 | 0.00 | 0.00 | 61 | 1013.3 |
| 20260831001330 | 32 | 141 | 3.2 | 8.0 | 0.00 | 0.00 | 0.00 | 60 | 1013.4 |
| 20260831000335 | 32 | 135 | 6.4 | 12.9 | 0.00 | 0.00 | 0.00 | 57 | 1013.2 |
| 20260830235343 | 33 | 178 | 1.6 | 6.4 | 0.00 | 0.00 | 0.00 | 55 | 1013.2 |
| 20260830234326 | 33 | 150 | 4.8 | 11.3 | 0.00 | 0.00 | 0.00 | 53 | 1013.2 |
| 20260830233328 | 33 | 134 | 3.2 | 6.4 | 0.00 | 0.00 | 0.00 | 51 | 1013.2 |
| 20260830232335 | 33 | 168 | 1.6 | 6.4 | 0.00 | 0.00 | 0.00 | 50 | 1013.3 |
| 20260830231345 | 34 | 135 | 3.2 | 6.4 | 0.00 | 0.00 | 0.00 | 46 | 1013.2 |
| 20260830230328 | 34 | 133 | 3.2 | 12.9 | 0.00 | 0.00 | 0.00 | 44 | 1013.2 |
| 20260830225333 | 35 | 122 | 6.4 | 17.7 | 0.00 | 0.00 | 0.00 | 42 | 1013.1 |
| 20260830224339 | 35 | 131 | 6.4 | 12.9 | 0.00 | 0.00 | 0.00 | 45 | 1013.1 |
| 20260830223400 | 35 | 122 | 4.8 | 16.1 | 0.00 | 0.00 | 0.00 | 43 | 1013.2 |
| 20260830222324 | 35 | 126 | 9.7 | 14.5 | 0.00 | 0.00 | 0.00 | 45 | 1013.1 |
| 20260830221349 | 35 | 108 | 4.8 | 14.5 | 0.00 | 0.00 | 0.00 | 44 | 1013.2 |
| 20260830220329 | 35 | 137 | 6.4 | 12.9 | 0.00 | 0.00 | 0.00 | 42 | 1013.2 |
| 20260830215333 | 35 | 109 | 1.6 | 6.4 | 0.00 | 0.00 | 0.00 | 45 | 1013.2 |
| 20260830214323 | 35 | 102 | 6.4 | 12.9 | 0.00 | 0.00 | 0.00 | 45 | 1013.3 |
| 20260830213327 | 34 | 126 | 0.0 | 3.2 | 0.00 | 0.00 | 0.00 | 48 | 1013.4 |
| 20260830212333 | 34 | 136 | 1.6 | 6.4 | 0.00 | 0.00 | 0.00 | 48 | 1013.7 |
| 20260830211338 | 35 | 30 | 1.6 | 6.4 | 0.00 | 0.00 | 0.00 | 46 | 1013.7 |
| 20260830210342 | 35 | 124 | 1.6 | 6.4 | 0.00 | 0.00 | 0.00 | 50 | 1013.9 |
| 20260830205328 | 35 | 103 | 3.2 | 12.9 | 0.00 | 0.00 | 0.00 | 49 | 1014.0 |
| 20260830204337 | 35 | 61 | 1.6 | 4.8 | 0.00 | 0.00 | 0.00 | 49 | 1014.0 |
| 20260830203341 | 34 | 112 | 4.8 | 9.7 | 0.00 | 0.00 | 0.00 | 52 | 1014.3 |
| 20260830202327 | 34 | 114 | 1.6 | 8.0 | 0.00 | 0.00 | 0.00 | 52 | 1014.4 |
| 20260830201332 | 34 | 97 | 0.0 | 8.0 | 0.00 | 0.00 | 0.00 | 51 | 1014.6 |
| 20260830200334 | 33 | 124 | 0.0 | 4.8 | 0.00 | 0.00 | 0.00 | 54 | 1014.8 |
| 20260830195339 | 34 | 143 | 1.6 | 6.4 | 0.00 | 0.00 | 0.00 | 52 | 1014.9 |
| 20260830194324 | 35 | 116 | 3.2 | 9.7 | 0.00 | 0.00 | 0.00 | 51 | 1015.1 |
| 20260830193332 | 34 | 29 | 3.2 | 9.7 | 0.00 | 0.00 | 0.00 | 54 | 1015.3 |
| 20260830192338 | 34 | 54 | 0.0 | 4.8 | 0.00 | 0.00 | 0.00 | 54 | 1015.5 |
| 20260830191342 | 35 | 91 | 1.6 | 8.0 | 0.00 | 0.00 | 0.00 | 53 | 1015.7 |
| 20260830190327 | 35 | 244 | 0.0 | 9.7 | 0.00 | 0.00 | 0.00 | 52 | 1015.8 |
| 20260830185351 | 35 | 133 | 3.2 | 8.0 | 0.00 | 0.00 | 0.00 | 51 | 1015.9 |
| 20260830184335 | 34 | 14 | 1.6 | 6.4 | 0.00 | 0.00 | 0.00 | 53 | 1015.9 |
| 20260830183358 | 34 | 145 | 4.8 | 11.3 | 0.00 | 0.00 | 0.00 | 53 | 1016.2 |
| 20260830182343 | 33 | 79 | 0.0 | 4.8 | 0.00 | 0.00 | 0.00 | 55 | 1016.4 |
| 20260830181332 | 33 | 302 | 3.2 | 6.4 | 0.00 | 0.00 | 0.00 | 55 | 1016.6 |
| 20260830180337 | 33 | 213 | 1.6 | 4.8 | 0.00 | 0.00 | 0.00 | 56 | 1016.7 |
| 20260830175342 | 32 | 209 | 0.0 | 4.8 | 0.00 | 0.00 | 0.00 | 58 | 1016.8 |
| 20260830174329 | 33 | 153 | 0.0 | 6.4 | 0.00 | 0.00 | 0.00 | 59 | 1017.0 |
| 20260830173333 | 32 | 220 | 1.6 | 8.0 | 0.00 | 0.00 | 0.00 | 59 | 1017.1 |
| 20260830172340 | 32 | 172 | 1.6 | 4.8 | 0.00 | 0.00 | 0.00 | 61 | 1017.2 |
| 20260830171330 | 32 | 266 | 3.2 | 6.4 | 0.00 | 0.00 | 0.00 | 60 | 1017.2 |
| 20260830170335 | 33 | 189 | 1.6 | 3.2 | 0.00 | 0.00 | 0.00 | 60 | 1017.3 |
| 20260830165339 | 32 | 244 | 1.6 | 8.0 | 0.00 | 0.00 | 0.00 | 61 | 1017.5 |
| 20260830164327 | 32 | 172 | 1.6 | 6.4 | 0.00 | 0.00 | 0.00 | 59 | 1017.6 |
| 20260830163332 | 32 | 131 | 1.6 | 6.4 | 0.00 | 0.00 | 0.00 | 64 | 1017.6 |
| 20260830162337 | 31 | 189 | 1.6 | 8.0 | 0.00 | 0.00 | 0.00 | 66 | 1017.6 |
| 20260830161341 | 31 | 193 | 0.0 | 0.0 | 0.00 | 0.00 | 0.00 | 68 | 1017.7 |
| 20260830160404 | 30 | 263 | 0.0 | 0.0 | 0.00 | 0.00 | 0.00 | 70 | 1017.7 |
| 20260830155333 | 30 | 175 | 0.0 | 0.0 | 0.00 | 0.00 | 0.00 | 76 | 1017.8 |
| 20260830154339 | 30 | 148 | 0.0 | 0.0 | 0.00 | 0.00 | 0.00 | 74 | 1017.8 |
| 20260830153324 | 30 | 232 | 0.0 | 0.0 | 0.00 | 0.00 | 0.00 | 77 | 1017.8 |
| 20260830152351 | 29 | 226 | 0.0 | 0.0 | 0.00 | 0.00 | 0.00 | 77 | 1017.7 |
| 20260830151355 | 29 | 159 | 0.0 | 0.0 | 0.00 | 0.00 | 0.00 | 79 | 1017.5 |
| 20260830150338 | 28 | 106 | 0.0 | 0.0 | 0.00 | 0.00 | 0.00 | 82 | 1017.5 |
| 20260830145342 | 28 | 135 | 0.0 | 0.0 | 0.00 | 0.00 | 0.00 | 85 | 1017.6 |
| 20260830144332 | 28 | 163 | 0.0 | 0.0 | 0.00 | 0.00 | 0.00 | 86 | 1017.7 |
| 20260830143337 | 27 | 278 | 0.0 | 0.0 | 0.00 | 0.00 | 0.00 | 89 | 1017.8 |
| 20260830142342 | 27 | 278 | 0.0 | 0.0 | 0.00 | 0.00 | 0.00 | 89 | 1017.7 |
| 20260830141330 | 27 | 360 | 0.0 | 0.0 | 0.00 | 0.00 | 0.00 | 91 | 1017.6 |
| 20260830140353 | 26 | 360 | 0.0 | 0.0 | 0.00 | 0.00 | 0.00 | 92 | 1017.6 |
| 20260830135336 | 26 | 124 | 0.0 | 0.0 | 0.00 | 0.00 | 0.00 | 94 | 1017.6 |
| 20260830134341 | 26 | 124 | 0.0 | 0.0 | 0.00 | 0.00 | 0.00 | 94 | 1017.6 |
| 20260830133343 | 25 | 124 | 0.0 | 0.0 | 0.00 | 0.00 | 0.00 | 95 | 1017.5 |
| 20260830132333 | 25 | 124 | 0.0 | 0.0 | 0.00 | 0.00 | 0.00 | 95 | 1017.5 |
| 20260830131359 | 24 | 124 | 0.0 | 0.0 | 0.00 | 0.00 | 0.00 | 94 | 1017.5 |
| 20260830130402 | 24 | 124 | 0.0 | 0.0 | 0.00 | 0.00 | 0.00 | 94 | 1017.3 |
| 20260830125327 | 23 | 124 | 0.0 | 0.0 | 0.00 | 0.00 | 0.00 | 94 | 1017.1 |
| 20260830124333 | 23 | 124 | 0.0 | 0.0 | 0.00 | 0.00 | 0.00 | 94 | 1017.1 |
| 20260830123337 | 23 | 124 | 0.0 | 0.0 | 0.00 | 0.00 | 0.00 | 94 | 1017.0 |
| 20260830122341 | 23 | 124 | 0.0 | 0.0 | 0.00 | 0.00 | 0.00 | 94 | 1016.9 |
| 20260830121327 | 23 | 124 | 0.0 | 0.0 | 0.00 | 0.00 | 0.00 | 94 | 1016.8 |
| 20260830120334 | 23 | 123 | 0.0 | 0.0 | 0.00 | 0.00 | 0.00 | 94 | 1016.7 |
| 20260830115338 | 23 | 123 | 0.0 | 0.0 | 0.00 | 0.00 | 0.00 | 93 | 1016.6 |
| 20260830114324 | 23 | 123 | 0.0 | 0.0 | 0.00 | 0.00 | 0.00 | 93 | 1016.5 |
| 20260830113327 | 23 | 124 | 0.0 | 0.0 | 0.00 | 0.00 | 0.00 | 93 | 1016.4 |
| 20260830112332 | 23 | 123 | 0.0 | 0.0 | 0.00 | 0.00 | 0.00 | 93 | 1016.3 |
| 20260830111357 | 23 | 123 | 0.0 | 0.0 | 0.00 | 0.00 | 0.00 | 93 | 1016.4 |